EW1578 Weather Reports


time (UTC)temp
C
wind
direction
speed
KPH
gust
KPH
rain 1hr
cm
rain 24hr
cm
rain mn
cm
humidity
%
barometer
mb
20260510054531 8 343 4.8 9.7 0.00 0.33 0.00 93 1010.1
20260510053027 8 246 0.0 0.0 0.00 0.33 0.00 92 1009.5
20260510051530 8 246 0.0 0.0 0.00 0.33 0.00 92 1009.4
20260510050021 8 246 0.0 0.0 0.00 0.33 0.33 92 1009.6
20260510044523 8 246 0.0 0.0 0.00 0.33 0.33 92 1009.5
20260510043020 8 246 0.0 0.0 0.00 0.33 0.33 92 1009.6
20260510041522 9 246 0.0 0.0 0.00 0.33 0.33 92 1009.8
20260510040021 8 246 0.0 0.0 0.00 0.33 0.33 90 1009.6
20260510034515 9 246 0.0 0.0 0.00 0.33 0.33 91 1009.6
20260510033014 9 246 0.0 0.0 0.00 0.33 0.33 91 1009.6
20260510031517 10 246 0.0 0.0 0.00 0.33 0.33 91 1009.6
20260510030010 10 246 0.0 0.0 0.00 0.33 0.33 90 1009.7
20260510024507 10 246 0.0 0.0 0.00 0.33 0.33 90 1009.6
20260510023007 11 246 0.0 0.0 0.00 0.33 0.33 90 1009.4
20260510021507 11 246 0.0 0.0 0.00 0.33 0.33 90 1009.4
20260510020003 11 246 0.0 0.0 0.00 0.33 0.33 90 1009.2
20260510014621 11 246 0.0 0.0 0.00 0.33 0.33 89 1009.1
20260510014504 11 246 0.0 0.0 0.00 0.33 0.33 89 1009.1
20260510013104 11 246 0.0 0.0 0.00 0.33 0.33 89 1009.0
20260510011600 11 246 0.0 0.0 0.00 0.33 0.33 89 1008.9
20260510010057 11 246 0.0 0.0 0.00 0.33 0.33 88 1008.9
20260510004557 12 246 0.0 0.0 0.00 0.33 0.33 86 1008.7
20260510003100 12 246 0.0 0.0 0.00 0.33 0.33 86 1008.6
20260510001556 13 246 0.0 0.0 0.00 0.33 0.33 84 1008.3
20260510000052 13 246 0.0 0.0 0.00 0.33 0.33 83 1008.2
20260509234552 15 246 0.0 0.0 0.00 0.33 0.33 81 1008.2
20260509233054 15 246 0.0 0.0 0.00 0.33 0.33 78 1008.1
20260509231551 15 246 0.0 0.0 0.00 0.33 0.33 78 1008.2
20260509230048 16 246 0.0 0.0 0.00 0.33 0.33 78 1008.2
20260509224647 16 242 0.0 0.0 0.00 0.33 0.33 77 1008.1
20260509223049 15 225 0.0 0.0 0.00 0.33 0.33 80 1008.0
20260509221600 15 269 0.0 6.4 0.00 0.33 0.33 79 1008.1
20260509220042 15 292 0.0 9.7 0.00 0.33 0.33 79 1008.2
20260509214539 15 234 0.0 0.0 0.00 0.33 0.33 82 1008.4
20260509213038 14 236 0.0 0.0 0.00 0.33 0.33 83 1008.4
20260509211538 14 237 0.0 0.0 0.00 0.33 0.33 83 1008.2
20260509210010 14 260 0.0 0.0 0.00 0.33 0.33 84 1008.5
20260509204503 14 268 0.0 11.3 0.00 0.33 0.33 83 1008.9
20260509203032 14 225 0.0 6.4 0.00 0.33 0.33 84 1008.9
20260509201539 13 281 0.0 12.9 0.00 0.33 0.33 85 1008.9
20260509200029 13 252 0.0 0.0 0.00 0.33 0.33 87 1008.9
20260509194528 13 251 0.0 0.0 0.00 0.33 0.33 86 1009.0
20260509193028 13 251 0.0 0.0 0.03 0.33 0.33 87 1009.0
20260509191526 12 251 0.0 0.0 0.05 0.33 0.33 88 1009.3
20260509190022 12 251 0.0 0.0 0.08 0.33 0.33 89 1009.7
20260509184526 12 250 0.0 0.0 0.08 0.33 0.33 89 1010.1
20260509183022 12 250 0.0 0.0 0.08 0.30 0.30 88 1010.2
20260509181520 12 250 0.0 0.0 0.05 0.28 0.28 88 1010.3
20260509180015 12 250 0.0 0.0 0.05 0.25 0.25 88 1010.3
20260509174515 12 250 0.0 1.6 0.10 0.25 0.25 87 1010.3
20260509173014 12 300 0.0 0.0 0.15 0.23 0.23 88 1010.2
20260509171524 12 5 0.0 3.2 0.18 0.23 0.23 87 1010.0
20260509170024 12 288 0.0 3.2 0.18 0.20 0.20 86 1010.1
20260509164511 13 281 0.0 8.0 0.15 0.15 0.15 85 1010.0
20260509163014 13 289 0.0 8.0 0.08 0.08 0.08 84 1010.3
20260509161507 14 250 0.0 1.6 0.05 0.05 0.05 84 1010.6
20260509160007 14 249 0.0 12.9 0.03 0.03 0.03 82 1010.5
20260509154505 15 257 0.0 9.7 0.00 0.00 0.00 79 1010.6
20260509153004 15 232 0.0 11.3 0.00 0.00 0.00 78 1010.6
20260509151501 15 246 0.0 12.9 0.00 0.00 0.00 78 1010.6
20260509150100 14 225 3.2 12.9 0.00 0.00 0.00 77 1010.5
20260509144559 14 259 0.0 6.4 0.00 0.00 0.00 77 1010.5
20260509143059 14 211 0.0 0.0 0.00 0.00 0.00 77 1010.2
20260509141555 14 255 0.0 8.0 0.00 0.00 0.00 77 1010.1
20260509134624 14 236 0.0 0.0 0.00 0.00 0.00 78 1010.1
20260509133055 13 182 0.0 0.0 0.00 0.00 0.00 79 1010.1
20260509131551 13 185 0.0 0.0 0.00 0.00 0.00 79 1010.1
20260509130044 13 294 0.0 0.0 0.00 0.00 0.00 81 1009.9
20260509124542 12 294 0.0 0.0 0.00 0.00 0.00 80 1010.0
20260509123042 12 294 0.0 0.0 0.00 0.00 0.00 80 1010.0
20260509121536 12 292 0.0 0.0 0.00 0.00 0.00 81 1010.2
20260509120036 12 292 0.0 0.0 0.00 0.00 0.00 81 1010.2
20260509114538 11 292 0.0 0.0 0.00 0.00 0.00 83 1010.1
20260509113031 11 291 0.0 0.0 0.00 0.00 0.00 84 1010.0
20260509111528 11 291 0.0 0.0 0.00 0.00 0.00 85 1010.0
20260509110025 11 291 0.0 0.0 0.00 0.00 0.00 84 1009.9
20260509104524 11 291 0.0 0.0 0.00 0.00 0.00 84 1009.7
20260509103024 11 285 0.0 0.0 0.00 0.00 0.00 83 1009.8
20260509101559 10 284 0.0 0.0 0.00 0.00 0.00 83 1009.7
20260509100053 10 283 0.0 0.0 0.00 0.00 0.00 83 1009.6
20260509094550 10 283 0.0 0.0 0.00 0.00 0.00 84 1009.5
20260509093049 10 283 0.0 0.0 0.00 0.00 0.00 83 1010.0
20260509091550 11 283 0.0 0.0 0.00 0.00 0.00 82 1010.0
20260509090047 11 283 0.0 0.0 0.00 0.00 0.00 82 1010.0
20260509084544 10 279 0.0 0.0 0.00 0.00 0.00 83 1010.1
20260509083047 10 279 0.0 0.0 0.00 0.00 0.00 82 1010.3
20260509081545 11 279 0.0 0.0 0.00 0.00 0.00 81 1010.5
20260509080040 11 279 0.0 0.0 0.00 0.00 0.00 81 1010.4
20260509074541 11 279 0.0 0.0 0.00 0.00 0.00 82 1010.5
20260509073036 11 279 0.0 0.0 0.00 0.00 0.00 79 1010.4
20260509071535 11 279 0.0 0.0 0.00 0.00 0.00 81 1010.4
20260509070035 11 279 0.0 0.0 0.00 0.00 0.00 82 1010.2
20260509064540 11 279 0.0 0.0 0.00 0.00 0.00 82 1010.3
20260509063029 11 279 0.0 0.0 0.00 0.00 0.00 83 1010.4
20260509061528 11 279 0.0 0.0 0.00 0.00 0.00 84 1010.6
20260509060025 11 279 0.0 0.0 0.00 0.00 0.00 82 1010.9